[Date Prev][Date Next][Thread Prev][Thread Next] - [Date Index][Thread Index][Author Index]
2 Line ISS Keps 4-25
- Subject: [sarex] 2 Line ISS Keps 4-25
- From: "Dave Larsen PhD" <doc@xxxxxxxxxxx>
- Date: Fri, 25 Apr 2003 05:23:50 -0700
ISS
1 25544U 98067A 03115.47965130 .00022934 00000-0 29977-3 0 9273
2 25544 51.6329 285.0359 0006753 54.7922 353.1623 15.58518469252789
----
Via the sarex mailing list at AMSAT.ORG courtesy of AMSAT-NA.
To unsubscribe, send "unsubscribe sarex" to Majordomo@amsat.org
AMSAT Home